Orbital Elements
Epoch 2015 Feb. 27.0 TT = JDT 2457080.5
T 2015 Feb. 23.28773 TT MPCW
q 3.1395359 (2000.0) P Q
n 0.10774800 Peri. 323.51111 -0.56090583 +0.80766903
a 4.3738435 Node 271.68138 -0.71002887 -0.58224793
e 0.2822020 Incl. 10.47985 -0.42572719 -0.09304885
P 9.15
From 254 observations 2005 Mar. 11-2016 Aug. 4, mean residual 0".5.
|